This demonstration page uses our WeatherBlox Daily Observations layout. Learn more.

Left ArrowRight Arrow

34.02893, -84.19858

Hourly Observations for May 31, 2022

Temp ( °F °C ) Dew Point ( °F °C ) Humidity (%) Winds ( mph kmh ) Pressure ( in mb ) Visibility ( mi km ) Precip ( " mm )
12:53 am 00:53 Clear 69 20.6 63 17.2 81 81 VRB 5 7 30.09 1019 10 16 0.00 0.00
1:53 am 01:53 Clear 69 20.6 63 17.2 81 81 Calm 30.07 1018 10 16 0.00 0.00
2:53 am 02:53 Clear 68 20 63 17.2 84 84 VRB 3 6 30.07 1018 10 16 0.00 0.00
3:53 am 03:53 Clear 67 19.4 64 17.8 91 91 Calm 30.07 1018 10 16 0.00 0.00
4:53 am 04:53 Clear 66 18.9 64 17.8 93 93 Calm 30.07 1018 10 16 0.00 0.00
5:53 am 05:53 Clear 66 18.9 64 17.8 93 93 Calm 30.08 1019 10 16 0.00 0.00
6:53 am 06:53 Sunny 66 18.9 65 18.3 96 96 Calm 30.10 1019 10 16 0.00 0.00
7:53 am 07:53 Mostly Cloudy 69 20.6 65 18.3 87 87 Calm 30.12 1020 10 16 0.00 0.00
8:38 am 08:38 Cloudy 71 21.7 67 19.4 87 87 VRB 3 6 30.14 1021 10 16 0.00 0.00
8:53 am 08:53 Cloudy 71 21.7 66 18.9 84 84 Calm 30.14 1021 10 16 0.00 0.00
9:53 am 09:53 Cloudy 72 22.2 67 19.4 84 84 Calm 30.14 1021 10 16 0.00 0.00
10:27 am 10:27 Cloudy 72 22.2 68 20 87 87 VRB 3 6 30.15 1021 10 16 0.00 0.00
10:53 am 10:53 Cloudy 74 23.3 68 20 82 82 VRB 3 6 30.13 1020 10 16 0.00 0.00
11:14 am 11:14 Cloudy 75 23.9 68 20 79 79 Calm 30.13 1020 10 16 0.00 0.00
11:53 am 11:53 Cloudy 76 24.4 67 19.4 74 74 Calm 30.13 1020 10 16 0.00 0.00
12:53 pm 12:53 Mostly Cloudy 78 25.6 67 19.4 69 69 VRB 3 6 30.11 1020 10 16 0.00 0.00
1:53 pm 13:53 Mostly Sunny 82 27.8 67 19.4 60 60 VRB 3 6 30.09 1019 10 16 0.00 0.00
2:53 pm 14:53 Mostly Sunny 84 28.9 66 18.9 55 55 Calm 30.07 1018 10 16 0.00 0.00
3:53 pm 15:53 Partly Cloudy 85 29.4 65 18.3 51 51 Calm 30.06 1018 10 16 0.00 0.00
4:53 pm 16:53 Sunny 84 28.9 65 18.3 53 53 Calm 30.04 1017 10 16 0.00 0.00
5:53 pm 17:53 Sunny 85 29.4 65 18.3 51 51 ESE 3 6 30.03 1017 10 16 0.00 0.00
6:53 pm 18:53 Sunny 85 29.4 65 18.3 51 51 Calm 30.03 1017 10 16 0.00 0.00
7:53 pm 19:53 Sunny 82 27.8 65 18.3 56 56 SE 3 6 30.03 1017 10 16 0.00 0.00
8:53 pm 20:53 Clear 77 25 65 18.3 66 66 Calm 30.04 1017 10 16 0.00 0.00
9:53 pm 21:53 Clear 75 23.9 65 18.3 71 71 Calm 30.05 1018 10 16 0.00 0.00
10:53 pm 22:53 Clear 73 22.8 65 18.3 76 76 Calm 30.06 1018 10 16 0.00 0.00
11:53 pm 23:53 Clear 70 21.1 65 18.3 84 84 Calm 30.06 1018 10 16 0.00 0.00

Powered by AerisWeather